Tracking 35237 objects as of 6-Sep-2026
HD Live streaming from Space Station
objects crossing your sky now

STARLINK-5928

Track STARLINK-5928 now!
10-day predictions
STARLINK-5928 is classified as:


NORAD ID: 55958
Int'l Code: 2023-037AW
Launch date: March 17, 2023
Source: United States (US)
Launch site: AIR FORCE WESTERN TEST RANGE (AFWTR)
Your satellite tracking list
Your tracking list is empty




NASA's NSSDC Master Catalog

Two Line Element Set (TLE):
1 55958U 23037AW  26248.74647613 -.00000161  00000-0 -57017-5 0  9992
2 55958  69.9995 170.4793 0003020 262.2601  97.8216 14.98330464191440
Source of the keplerian elements: AFSPC